This demonstration page uses our WeatherBlox Daily Observations layout. Learn more.

Left ArrowRight Arrow

Hourly Observations for December 30, 2015

Temp ( °F °C ) Dew Point ( °F °C ) Humidity (%) Winds ( mph kmh ) Pressure ( in mb ) Visibility ( mi km ) Precip ( " mm )
12:51 am 00:51 Clear 27 -2.8 21 -6.1 78 78 E 7 11 30.12 1020 10 16 N/A
1:51 am 01:51 Clear 26 -3.3 21 -6.1 81 81 N N/A 30.13 1020 10 16 N/A
2:51 am 02:51 Clear 25 -3.9 20 -6.7 81 81 N N/A 30.14 1021 10 16 N/A
3:51 am 03:51 Clear 24 -4.4 20 -6.7 84 84 N N/A 30.16 1021 10 16 N/A
4:51 am 04:51 Clear 24 -4.4 20 -6.7 84 84 ENE 5 7 30.16 1021 10 16 N/A
5:51 am 05:51 Clear 22 -5.6 19 -7.2 89 89 N N/A 30.19 1023 10 16 N/A
6:51 am 06:51 Clear 24 -4.4 19 -7.2 81 81 N N/A 30.23 1024 10 16 N/A
7:51 am 07:51 Sunny 24 -4.4 20 -6.7 84 84 ESE 6 9 30.25 1024 10 16 N/A
8:51 am 08:51 Sunny 31 -0.6 23 -5 72 72 ESE 5 7 30.25 1024 10 16 N/A
9:51 am 09:51 Sunny 38 3.3 24 -4.4 57 57 SSE 6 9 30.26 1025 10 16 N/A
10:51 am 10:51 Sunny 42 5.6 25 -3.9 51 51 SSE 8 13 30.26 1025 10 16 N/A
11:51 am 11:51 Sunny 46 7.8 25 -3.9 44 44 SSE 8 13 30.22 1023 10 16 N/A
12:51 pm 12:51 Sunny 47 8.3 24 -4.4 41 41 SE 6 9 30.17 1022 10 16 N/A
1:33 pm 13:33 Hazy 49 9.4 24 -4.4 38 38 SW 3 6 30.15 1021 2 3 N/A
1:42 pm 13:42 Sunny 49 9.4 24 -4.4 38 38 SSW 5 7 30.12 1020 10 16 N/A
1:51 pm 13:51 Sunny 50 10 23 -5 35 35 VRB 5 7 30.13 1020 10 16 N/A
2:51 pm 14:51 Sunny 51 10.6 22 -5.6 32 32 VRB 5 7 30.11 1020 10 16 N/A
3:51 pm 15:51 Sunny 51 10.6 22 -5.6 32 32 N N/A 30.10 1019 10 16 N/A
4:51 pm 16:51 Sunny 50 10 22 -5.6 33 33 SSE 3 6 30.11 1020 10 16 N/A
5:51 pm 17:51 Clear 46 7.8 23 -5 40 40 S 6 9 30.12 1020 10 16 N/A
6:51 pm 18:51 Clear 39 3.9 22 -5.6 50 50 NE 6 9 30.14 1021 10 16 N/A
7:51 pm 19:51 Clear 36 2.2 22 -5.6 57 57 SE 5 7 30.15 1021 10 16 N/A
8:51 pm 20:51 Clear 36 2.2 23 -5 59 59 ESE 6 9 30.14 1021 10 16 N/A
9:51 pm 21:51 Clear 34 1.1 22 -5.6 61 61 ESE 6 9 30.14 1021 10 16 N/A
10:51 pm 22:51 Clear 34 1.1 22 -5.6 61 61 SE 6 9 30.13 1020 10 16 N/A
11:51 pm 23:51 Clear 35 1.7 22 -5.6 59 59 SE 5 7 30.11 1020 10 16 N/A

Powered by AerisWeather